This demonstration page uses our WeatherBlox Daily Observations layout. Learn more.

Left ArrowRight Arrow

Hourly Observations for September 25, 2022

Temp ( °F °C ) Dew Point ( °F °C ) Humidity (%) Winds ( mph kmh ) Pressure ( in mb ) Visibility ( mi km ) Precip ( " mm )
12:15 am 00:15 Mostly Cloudy 55 13 54 12 94 94 Calm 29.93 1014 10 16 0.00 0.00
12:35 am 00:35 Cloudy 57 14 54 12 88 88 Calm 29.92 1013 10 16 0.00 0.00
12:55 am 00:55 Mostly Cloudy 59 15 54 12 82 82 Calm 29.91 1013 10 16 0.00 0.00
1:15 am 01:15 Mostly Cloudy 57 14 54 12 88 88 Calm 29.90 1013 10 16 0.00 0.00
1:35 am 01:35 Partly Cloudy 57 14 54 12 88 88 SE 5 7 29.89 1012 10 16 0.00 0.00
1:55 am 01:55 Mostly Cloudy 55 13 54 12 94 94 Calm 29.89 1012 10 16 0.00 0.00
2:15 am 02:15 Mostly Cloudy 55 13 54 12 94 94 NNW 3 6 29.89 1012 10 16 0.00 0.00
2:35 am 02:35 Cloudy 55 13 54 12 94 94 Calm 29.88 1012 10 16 0.00 0.00
2:55 am 02:55 Cloudy 55 13 54 12 94 94 Calm 29.88 1012 10 16 0.00 0.00
3:15 am 03:15 Cloudy 55 13 54 12 94 94 Calm 29.87 1012 10 16 0.00 0.00
3:35 am 03:35 Cloudy 55 13 54 12 94 94 Calm 29.87 1012 10 16 0.00 0.00
3:55 am 03:55 Cloudy 55 13 54 12 94 94 Calm 29.87 1012 10 16 0.00 0.00
4:15 am 04:15 Cloudy 54 12 54 12 100 100 Calm 29.86 1011 10 16 0.00 0.00
4:35 am 04:35 Cloudy 55 13 54 12 94 94 Calm 29.86 1011 10 16 0.00 0.00
4:55 am 04:55 Mostly Cloudy 55 13 54 12 94 94 Calm 29.85 1011 10 16 0.00 0.00
5:15 am 05:15 Cloudy 55 13 54 12 94 94 W 3 6 29.85 1011 10 16 0.00 0.00
5:35 am 05:35 Cloudy 55 13 54 12 94 94 Calm 29.84 1011 10 16 0.00 0.00
5:55 am 05:55 Partly Cloudy 55 13 54 12 94 94 Calm 29.84 1011 10 16 0.00 0.00
6:15 am 06:15 Clear 55 13 54 12 94 94 S 3 6 29.83 1010 10 16 0.00 0.00
6:35 am 06:35 Clear 54 12 54 12 100 100 W 3 6 29.84 1011 10 16 0.00 0.00
6:55 am 06:55 Clear 54 12 54 12 100 100 Calm 29.83 1010 10 16 0.00 0.00
7:15 am 07:15 Sunny 54 12 54 12 100 100 Calm 29.82 1010 10 16 0.00 0.00
7:35 am 07:35 Sunny 54 12 54 12 100 100 Calm 29.83 1010 10 16 0.00 0.00
7:55 am 07:55 Sunny 54 12 54 12 100 100 Calm 29.82 1010 10 16 0.00 0.00
8:15 am 08:15 Sunny 55 13 54 12 94 94 S 3 6 29.81 1010 10 16 0.00 0.00
8:35 am 08:35 Sunny 55 13 54 12 94 94 SSW 3 6 29.80 1009 10 16 0.00 0.00
8:55 am 08:55 Sunny 55 13 55 13 100 100 Calm 29.80 1009 10 16 0.00 0.00
9:15 am 09:15 Sunny 55 13 55 13 100 100 S 3 6 29.79 1009 10 16 0.00 0.00
9:35 am 09:35 Sunny 55 13 55 13 100 100 SSW 3 6 29.79 1009 10 16 0.00 0.00
9:55 am 09:55 Sunny 57 14 55 13 94 94 S 3 6 29.79 1009 10 16 0.00 0.00
10:15 am 10:15 Sunny 59 15 55 13 88 88 Calm 29.79 1009 10 16 0.00 0.00
10:35 am 10:35 Sunny 61 16 57 14 88 88 SW 3 6 29.78 1008 10 16 0.00 0.00
10:55 am 10:55 Sunny 63 17 59 15 88 88 SW 5 7 29.77 1008 10 16 0.00 0.00
11:15 am 11:15 Sunny 63 17 59 15 88 88 Calm 29.77 1008 10 16 0.00 0.00
11:35 am 11:35 Sunny 63 17 59 15 88 88 Calm 29.76 1008 10 16 0.00 0.00
11:55 am 11:55 Sunny 64 18 59 15 83 83 S 3 6 29.74 1007 10 16 0.00 0.00
12:15 pm 12:15 Sunny 64 18 59 15 83 83 Calm 29.73 1007 10 16 0.00 0.00
12:35 pm 12:35 Sunny 66 19 59 15 78 78 S 5 7 29.72 1007 10 16 0.00 0.00
12:55 pm 12:55 Sunny 70 21 61 16 73 73 SSW 8 13 29.71 1006 10 16 0.00 0.00
1:15 pm 13:15 Sunny 73 23 63 17 69 69 SSW 9 15 29.69 1005 10 16 0.00 0.00
1:35 pm 13:35 Sunny 77 25 63 17 61 61 SW 13 20 29.68 1005 10 16 0.00 0.00
1:55 pm 13:55 Sunny 73 23 61 16 65 65 SSW 9 15 29.68 1005 10 16 0.00 0.00
2:15 pm 14:15 Mostly Cloudy 72 22 61 16 69 69 WSW 7 11 29.71 1006 10 16 0.00 0.00
2:35 pm 14:35 Mostly Cloudy 68 20 63 17 83 83 N 6 9 29.69 1005 10 16 0.00 0.00
2:55 pm 14:55 Partly Cloudy 70 21 64 18 83 83 Calm 29.70 1006 10 16 0.00 0.00
3:15 pm 15:15 Sunny 72 22 63 17 73 73 S 3 6 29.69 1005 10 16 0.00 0.00
3:35 pm 15:35 Sunny 72 22 63 17 73 73 SSE 5 7 29.68 1005 10 16 0.00 0.00
3:55 pm 15:55 Partly Cloudy 72 22 63 17 73 73 S 5 7 29.67 1005 10 16 0.00 0.00
4:15 pm 16:15 Partly Cloudy 72 22 63 17 73 73 SE 6 9 29.65 1004 10 16 0.00 0.00
4:35 pm 16:35 Sunny 73 23 63 17 69 69 S 9 15 29.64 1004 10 16 0.00 0.00
4:55 pm 16:55 Sunny 72 22 63 17 73 73 S 7 11 29.63 1003 10 16 0.00 0.00
5:15 pm 17:15 Sunny 73 23 63 17 69 69 S 6 9 29.63 1003 10 16 0.00 0.00
5:35 pm 17:35 Sunny 73 23 64 18 73 73 S 6 9 29.63 1003 10 16 0.00 0.00
5:55 pm 17:55 Sunny 73 23 64 18 73 73 S 6 9 29.63 1003 10 16 0.00 0.00
6:15 pm 18:15 Sunny 73 23 63 17 69 69 SW 5 7 29.63 1003 10 16 0.00 0.00
6:35 pm 18:35 Partly Cloudy 72 22 61 16 69 69 S 5 7 29.63 1003 10 16 0.00 0.00
6:55 pm 18:55 Partly Cloudy 72 22 61 16 69 69 Calm 29.63 1003 10 16 0.00 0.00
7:15 pm 19:15 Mostly Cloudy 72 22 61 16 69 69 WSW 6 9 29.63 1003 10 16 0.00 0.00
7:35 pm 19:35 Mostly Cloudy 70 21 61 16 73 73 WSW 7 11 29.65 1004 10 16 0.00 0.00
7:55 pm 19:55 Partly Cloudy 70 21 61 16 73 73 WSW 8 13 29.65 1004 10 16 0.00 0.00
8:15 pm 20:15 Clear 68 20 61 16 78 78 WSW 8 13 29.66 1004 10 16 0.00 0.00
8:35 pm 20:35 Clear 68 20 61 16 78 78 WSW 8 13 29.66 1004 10 16 0.00 0.00
8:55 pm 20:55 Clear 68 20 61 16 78 78 SW 7 11 29.67 1005 10 16 0.00 0.00
9:15 pm 21:15 Partly Cloudy 66 19 61 16 83 83 WSW 6 9 29.69 1005 10 16 0.00 0.00
9:35 pm 21:35 Partly Cloudy 64 18 61 16 88 88 W 6 9 29.69 1006 10 16 0.00 0.00
9:55 pm 21:55 Partly Cloudy 66 19 61 16 83 83 NNW 5 7 29.72 1007 10 16 0.00 0.00
10:15 pm 22:15 Partly Cloudy 66 19 61 16 83 83 Calm 29.72 1007 10 16 0.00 0.00
10:35 pm 22:35 Mostly Cloudy 66 19 59 15 78 78 Calm 29.72 1007 10 16 0.00 0.00
10:55 pm 22:55 Partly Cloudy 63 17 59 15 88 88 Calm 29.73 1007 10 16 0.00 0.00
11:15 pm 23:15 Partly Cloudy 59 15 59 15 100 100 WNW 3 6 29.74 1007 10 16 0.00 0.00
11:35 pm 23:35 Partly Cloudy 63 17 59 15 88 88 Calm 29.74 1007 10 16 0.00 0.00
11:55 pm 23:55 Mostly Cloudy 64 18 59 15 83 83 Calm 29.74 1007 10 16 0.00 0.00

Powered by AerisWeather